Tracking 19634 objects as of 22-May-2019
HD Live streaming from Space Station
objects crossing your sky now

HESSI

Track HESSI now!
10-day predictions
HESSI is classified as:


NORAD ID: 27370
Int'l Code: 2002-004A
Perigee: 470.4 km
Apogee: 486.7 km
Inclination: 38.0 °
Period: 94.0 minutes
Semi major axis: 6849 km
RCS: 2.4114 m2 (large)
Launch date: February 5, 2002
Source: United States (US)
Launch site: Pegasus launched from Eastern Range Air Space (ERAS)

Explore basic physics of particle acceleration and explosive energy release in solar flares.
aabbcc
Your satellite tracking list
Your tracking list is empty




NASA's NSSDC Master Catalog

Two Line Element Set (TLE):
1 27370U 02004A   19142.13413927  .00001227  00000-0  44009-4 0  9995
2 27370  38.0332  67.1861 0011905   6.2579 353.8339 15.31484621954146
Source of the keplerian elements: AFSPC